EW5962 Weather Reports


time (UTC)temp
F
wind
direction
speed
knots
gust
knots
rain 1hr
in
rain 24hr
in
rain mn
in
humidity
%
barometer
mb
20260906143503 77 339 0.0 0.0 0.00 0.18 0.00 86 1012.2
20260906143013 77 339 0.0 0.0 0.00 0.18 0.00 84 1012.3
20260906142604 77 335 0.0 0.9 0.00 0.18 0.00 85 1012.2
20260906142038 76 6 0.0 0.9 0.00 0.18 0.00 85 1012.1
20260906141537 76 329 0.0 0.9 0.00 0.18 0.00 86 1012.0
20260906141034 76 337 0.0 0.0 0.00 0.18 0.00 87 1012.0
20260906140534 0 0.0 0.0 0.00 0.18 0.00 1011.9
20260906131010 73 265 0.0 0.0 0.00 0.18 0.00 97 1011.6
20260906130602 73 265 0.0 0.0 0.00 0.18 0.00 97 1011.7
20260906130003 73 265 0.0 1.7 0.00 0.18 0.00 98 1011.5
20260906125511 73 265 0.0 1.7 0.00 0.18 0.00 98 1011.7
20260906125104 73 265 0.0 0.0 0.00 0.18 0.00 98 1011.6
20260906124503 72 265 0.0 0.0 0.00 0.18 0.00 98 1011.8
20260906124009 72 265 0.0 2.6 0.00 0.18 0.00 98 1011.9
20260906123602 72 265 0.0 2.6 0.00 0.18 0.00 98 1011.8
20260906123002 72 252 0.0 0.0 0.00 0.18 0.00 98 1011.7
20260906122509 72 252 0.0 1.7 0.00 0.18 0.00 98 1011.6
20260906122102 72 252 0.0 1.7 0.00 0.18 0.00 98 1011.5
20260906121503 71 191 0.0 0.0 0.00 0.18 0.00 98 1011.5
20260906121003 71 191 0.0 0.0 0.00 0.18 0.00 98 1011.4
20260906120511 71 191 0.0 0.0 0.00 0.18 0.00 98 1011.2
20260906120111 70 191 0.0 0.0 0.00 0.18 0.00 98 1011.2
20260906115503 70 191 0.0 0.0 0.00 0.18 0.00 98 1011.1
20260906115010 70 191 0.0 0.0 0.00 0.18 0.00 98 1011.2
20260906114607 70 191 0.0 0.0 0.00 0.18 0.00 98 1011.2
20260906114003 70 191 0.0 0.0 0.00 0.18 0.00 98 1011.1
20260906113508 70 191 0.0 0.0 0.00 0.18 0.00 98 1011.1
20260906113108 69 191 0.0 0.0 0.00 0.18 0.00 98 1011.2
20260906112503 69 191 0.0 0.0 0.00 0.18 0.00 98 1011.1
20260906112009 69 191 0.0 0.0 0.00 0.18 0.00 98 1011.1
20260906111603 69 191 0.0 0.0 0.00 0.18 0.00 98 1011.0
20260906111003 69 191 0.0 0.0 0.00 0.18 0.00 98 1011.1
20260906110509 69 191 0.0 0.0 0.00 0.18 0.00 98 1011.0
20260906105504 70 191 0.0 0.0 0.00 0.18 0.00 98 1010.9
20260906105009 70 184 0.0 0.0 0.00 0.18 0.00 98 1010.8
20260906104603 70 184 0.0 0.0 0.00 0.18 0.00 98 1010.8
20260906104003 70 183 0.0 0.0 0.00 0.18 0.00 98 1010.8
20260906103509 70 183 0.0 0.0 0.00 0.18 0.00 98 1010.7
20260906103104 70 183 0.0 0.0 0.00 0.18 0.00 98 1010.6
20260906102504 70 183 0.0 0.0 0.00 0.18 0.00 98 1010.6
20260906102009 70 183 0.0 0.0 0.00 0.18 0.00 98 1010.6
20260906101604 69 183 0.0 0.0 0.00 0.18 0.00 98 1010.6
20260906101003 69 183 0.0 0.0 0.00 0.18 0.00 98 1010.5
20260906100509 69 183 0.0 0.0 0.00 0.18 0.00 98 1010.4
20260906095502 68 183 0.0 0.0 0.00 0.18 0.00 98 1010.1
20260906095009 68 183 0.0 0.0 0.00 0.18 0.00 98 1010.1
20260906094604 68 183 0.0 0.0 0.00 0.18 0.00 98 1010.2
20260906094003 68 183 0.0 0.0 0.00 0.18 0.00 98 1010.3
20260906093509 67 183 0.0 0.0 0.00 0.18 0.00 97 1010.2
20260906093103 67 183 0.0 0.0 0.00 0.18 0.00 97 1010.1
20260906092502 67 183 0.0 0.0 0.00 0.18 0.00 97 1010.1
20260906092008 67 183 0.0 0.0 0.00 0.18 0.00 97 1010.1
20260906091603 67 183 0.0 0.0 0.00 0.18 0.00 97 1009.9
20260906091003 67 183 0.0 0.0 0.00 0.18 0.00 97 1009.7
20260906090508 67 183 0.0 0.0 0.00 0.18 0.00 97 1009.6
20260906090103 67 183 0.0 0.0 0.00 0.18 0.00 97 1009.6
20260906085505 67 183 0.0 0.0 0.00 0.18 0.00 97 1009.4
20260906085009 67 183 0.0 0.0 0.00 0.18 0.00 97 1009.5
20260906084603 67 183 0.0 0.0 0.00 0.18 0.00 97 1009.5
20260906084005 67 183 0.0 0.0 0.00 0.18 0.00 97 1009.6
20260906083509 68 183 0.0 0.0 0.00 0.18 0.00 97 1009.5
20260906083103 68 183 0.0 0.0 0.00 0.18 0.00 97 1009.4
20260906082503 68 183 0.0 0.0 0.00 0.18 0.00 97 1009.4
20260906082009 68 183 0.0 0.0 0.00 0.18 0.00 97 1009.4
20260906081603 68 183 0.0 0.0 0.00 0.18 0.00 97 1009.3
20260906081003 68 183 0.0 0.0 0.00 0.18 0.00 97 1009.2
20260906080509 68 183 0.0 0.0 0.00 0.18 0.00 97 1009.0
20260906080103 68 183 0.0 0.0 0.00 0.18 0.00 97 1009.1
20260906075502 68 183 0.0 0.0 0.00 0.18 0.00 97 1009.0
20260906075009 68 183 0.0 0.0 0.00 0.18 0.00 97 1009.1
20260906074509 68 183 0.0 0.0 0.00 0.18 0.00 97 1009.1
20260906074103 68 183 0.0 0.0 0.00 0.18 0.00 97 1009.2
20260906073503 68 183 0.0 0.0 0.00 0.18 0.00 97 1009.3
20260906073009 68 183 0.0 0.0 0.00 0.18 0.00 97 1009.3
20260906072602 68 183 0.0 0.0 0.00 0.18 0.00 97 1009.2
20260906072003 68 183 0.0 0.0 0.00 0.18 0.00 97 1009.3
20260906071508 68 183 0.0 0.0 0.00 0.18 0.00 97 1009.4
20260906071105 68 183 0.0 0.0 0.00 0.18 0.00 97 1009.3
20260906070502 68 183 0.0 0.0 0.00 0.18 0.00 97 1009.3
20260906070014 68 183 0.0 0.0 0.00 0.18 0.00 97 1009.3
20260906065503 68 183 0.0 0.0 0.00 0.18 0.00 97 1009.4
20260906065009 68 183 0.0 0.0 0.00 0.18 0.00 97 1009.5
20260906064502 68 183 0.0 0.0 0.00 0.18 0.00 97 1009.5
20260906064103 68 183 0.0 0.0 0.00 0.18 0.00 97 1009.5
20260906063503 69 183 0.0 0.0 0.00 0.18 0.00 97 1009.6
20260906063102 69 183 0.0 0.0 0.00 0.18 0.00 96 1009.7
20260906062502 69 183 0.0 0.0 0.00 0.18 0.00 96 1009.6
20260906062009 69 183 0.0 0.0 0.00 0.18 0.00 97 1009.5
20260906061626 69 183 0.0 0.0 0.00 0.18 0.00 97 1009.5
20260906061003 69 183 0.0 0.0 0.00 0.18 0.00 97 1009.7
20260906060509 69 183 0.0 0.0 0.00 0.18 0.00 97 1009.7
20260906060119 69 183 0.0 0.0 0.00 0.18 0.00 97 1009.8
20260906055503 69 183 0.0 0.0 0.00 0.18 0.00 97 1009.7
20260906055010 69 183 0.0 0.0 0.00 0.18 0.00 97 1009.7
20260906054604 69 183 0.0 0.0 0.00 0.18 0.00 97 1009.9
20260906054003 69 183 0.0 0.0 0.00 0.18 0.00 96 1009.8
20260906053511 69 183 0.0 0.0 0.00 0.18 0.00 96 1009.8
20260906053103 70 183 0.0 0.0 0.00 0.18 0.00 96 1009.9
20260906052503 70 183 0.0 0.0 0.00 0.18 0.00 97 1009.8
20260906052012 70 183 0.0 0.0 0.00 0.18 0.00 97 1009.7
20260906051609 70 183 0.0 0.0 0.00 0.18 0.00 97 1009.7
20260906051005 70 183 0.0 0.0 0.00 0.18 0.00 97 1009.8
20260906050514 70 183 0.0 0.0 0.00 0.18 0.00 97 1009.9
20260906045502 70 183 0.0 0.0 0.00 0.18 0.00 97 1010.1
20260906045009 70 183 0.0 0.0 0.00 0.18 0.00 97 1010.1
20260906044509 70 183 0.0 0.0 0.00 0.18 0.00 97 1010.1
20260906044106 70 183 0.0 0.0 0.00 0.18 0.00 97 1010.2
20260906043605 70 183 0.0 0.0 0.00 0.18 0.00 97 1010.3
20260906043011 70 183 0.0 0.0 0.00 0.18 0.00 97 1010.4
20260906042509 70 183 0.0 0.0 0.00 0.18 0.00 97 1010.5
20260906042102 70 183 0.0 0.0 0.00 0.18 0.00 97 1010.5
20260906041504 70 183 0.0 0.0 0.00 0.18 0.00 97 1010.6
20260906041003 70 183 0.0 0.0 0.00 0.18 0.00 97 1010.6
20260906040502 70 183 0.0 0.0 0.00 0.18 0.00 97 1010.6
20260906040009 70 183 0.0 0.0 0.00 0.18 0.00 97 1010.4
20260906035603 70 183 0.0 0.9 0.00 0.18 0.18 97 1010.5
20260906035003 70 183 0.0 0.9 0.00 0.18 0.18 96 1010.5
20260906034508 70 183 0.0 0.0 0.00 0.18 0.18 96 1010.5
20260906033502 70 183 0.0 0.0 0.00 0.18 0.18 96 1010.3
20260906033009 70 183 0.0 0.0 0.00 0.18 0.18 96 1010.3
20260906032604 70 183 0.0 0.0 0.00 0.18 0.18 96 1010.3
20260906032004 70 183 0.0 0.0 0.00 0.18 0.18 96 1010.2
20260906031510 70 183 0.0 0.0 0.00 0.18 0.18 96 1010.0
20260906031106 70 183 0.0 0.0 0.00 0.18 0.18 96 1010.0
20260906030503 70 183 0.0 0.0 0.00 0.18 0.18 96 1010.1
20260906030009 70 183 0.0 0.0 0.00 0.18 0.18 96 1010.1
20260906025604 70 183 0.0 0.0 0.00 0.18 0.18 96 1010.1
20260906025003 71 183 0.0 0.0 0.00 0.18 0.18 96 1010.0
20260906024509 71 183 0.0 0.0 0.00 0.18 0.18 96 1010.0
20260906024104 71 183 0.0 0.0 0.00 0.18 0.18 96 1010.0
20260906023503 71 183 0.0 0.0 0.00 0.18 0.18 96 1009.9
20260906023009 71 183 0.0 0.0 0.00 0.18 0.18 96 1009.8
20260906022602 71 183 0.0 0.0 0.00 0.18 0.18 96 1009.9
20260906022003 71 183 0.0 0.0 0.00 0.18 0.18 96 1009.9
20260906021519 71 183 0.0 0.0 0.00 0.18 0.18 96 1010.0
20260906021103 71 183 0.0 0.0 0.00 0.18 0.18 96 1009.9
20260906020503 71 183 0.0 0.0 0.00 0.18 0.18 96 1009.8
20260906020013 71 183 0.0 0.0 0.00 0.18 0.18 95 1009.8
20260906015602 71 183 0.0 0.0 0.00 0.18 0.18 95 1009.8
20260906015003 71 183 0.0 0.0 0.00 0.18 0.18 96 1009.8
20260906014514 72 183 0.0 0.0 0.00 0.18 0.18 96 1009.8
20260906014102 72 183 0.0 0.0 0.00 0.18 0.18 96 1009.7
20260906013506 72 183 0.0 0.0 0.00 0.18 0.18 96 1009.7
20260906013020 72 183 0.0 0.0 0.00 0.18 0.18 95 1009.8
20260906012602 72 183 0.0 0.0 0.00 0.18 0.18 95 1009.7
20260906012003 72 183 0.0 0.0 0.00 0.18 0.18 95 1009.7
20260906011509 72 183 0.0 0.0 0.00 0.18 0.18 95 1009.7
20260906011102 72 183 0.0 0.0 0.00 0.18 0.18 95 1009.6
20260906010505 72 183 0.0 0.0 0.00 0.18 0.18 95 1009.5
20260906010011 72 183 0.0 0.0 0.00 0.18 0.18 95 1009.6
20260906005602 72 183 0.0 0.0 0.00 0.18 0.18 95 1009.5
20260906005003 72 183 0.0 0.0 0.00 0.18 0.18 95 1009.3
20260906004509 73 183 0.0 0.0 0.00 0.18 0.18 95 1009.3
20260906004105 73 183 0.0 0.0 0.00 0.18 0.18 95 1009.4
20260906003503 73 183 0.0 0.0 0.00 0.18 0.18 95 1009.3
20260906003018 73 183 0.0 0.0 0.00 0.18 0.18 95 1009.4
20260906002603 73 183 0.0 0.0 0.00 0.18 0.18 95 1009.3
20260906002003 73 183 0.0 0.0 0.00 0.18 0.18 94 1009.3
20260906001512 73 183 0.0 0.0 0.00 0.18 0.18 94 1009.2
20260906001103 73 183 0.0 0.0 0.00 0.18 0.18 94 1009.2
20260906000503 74 183 0.0 0.0 0.00 0.18 0.18 94 1009.2
20260906000008 74 183 0.0 0.0 0.00 0.18 0.18 94 1009.1
20260905235606 74 183 0.0 0.0 0.00 0.18 0.18 94 1009.0
20260905235003 74 183 0.0 0.0 0.00 0.18 0.18 94 1008.9
20260905234509 74 183 0.0 0.0 0.00 0.18 0.18 94 1008.7
20260905234103 74 183 0.0 0.0 0.00 0.18 0.18 94 1008.8
20260905233502 75 183 0.0 0.0 0.00 0.18 0.18 94 1008.6
20260905233014 75 183 0.0 0.0 0.00 0.18 0.18 95 1008.5
20260905232604 75 183 0.0 0.0 0.00 0.18 0.18 95 1008.5
20260905232003 75 183 0.0 0.0 0.00 0.18 0.18 94 1008.5
20260905231510 75 183 0.0 0.0 0.00 0.18 0.18 94 1008.5
20260905231103 75 183 0.0 0.0 0.00 0.18 0.18 94 1008.5
20260905230503 75 183 0.0 0.0 0.00 0.18 0.18 95 1008.4
20260905230009 75 183 0.0 0.0 0.00 0.18 0.18 94 1008.4
20260905225604 75 180 0.0 0.0 0.00 0.18 0.18 94 1008.4
20260905225003 75 180 0.0 0.0 0.00 0.18 0.18 94 1008.5
20260905224515 75 180 0.0 0.0 0.00 0.18 0.18 94 1008.4
20260905224104 75 180 0.0 0.0 0.00 0.18 0.18 93 1008.5
20260905223505 75 180 0.0 0.0 0.00 0.18 0.18 94 1008.5
20260905223009 75 180 0.0 0.0 0.00 0.18 0.18 94 1008.7
20260905222602 75 180 0.0 0.0 0.00 0.18 0.18 94 1008.7
20260905222002 75 180 0.0 0.0 0.00 0.18 0.18 94 1008.8
20260905221511 75 180 0.0 0.0 0.00 0.18 0.18 94 1008.8
20260905221102 75 180 0.0 0.0 0.00 0.18 0.18 94 1008.8
20260905220502 75 180 0.0 0.0 0.00 0.18 0.18 94 1008.8
20260905220009 75 180 0.0 0.0 0.00 0.18 0.18 94 1008.8
20260905215604 74 180 0.0 0.0 0.00 0.18 0.18 94 1008.9
20260905215006 74 180 0.0 0.0 0.00 0.18 0.18 94 1009.0
20260905214510 74 180 0.0 0.0 0.00 0.18 0.18 94 1009.0
20260905214103 74 180 0.0 0.0 0.00 0.18 0.18 94 1009.0
20260905213503 74 180 0.0 0.0 0.00 0.18 0.18 95 1009.0
20260905213008 74 180 0.0 0.0 0.00 0.18 0.18 94 1009.0
20260905212603 74 180 0.0 0.0 0.00 0.18 0.18 94 1009.1
20260905212002 74 180 0.0 0.0 0.00 0.18 0.18 94 1009.2
20260905211508 74 180 0.0 0.0 0.00 0.18 0.18 94 1009.3
20260905211105 74 180 0.0 0.0 0.00 0.18 0.18 94 1009.3
20260905210504 74 180 0.0 0.0 0.00 0.18 0.18 95 1009.4
20260905210009 73 180 0.0 0.0 0.00 0.18 0.18 94 1009.6
20260905205603 73 180 0.0 0.0 0.00 0.18 0.18 95 1009.8
20260905205002 73 180 0.0 0.9 0.00 0.18 0.18 95 1009.4
20260905204511 73 207 0.0 1.7 0.00 0.18 0.18 95 1009.3
20260905204102 73 193 0.0 1.7 0.00 0.18 0.18 96 1009.1
20260905203502 72 194 0.0 3.5 0.00 0.18 0.18 96 1009.0
20260905203009 72 193 0.0 3.5 0.00 0.18 0.18 95 1008.9
20260905202603 72 171 0.0 0.0 0.00 0.18 0.18 95 1009.0
20260905202016 72 170 0.0 0.0 0.00 0.18 0.18 95 1008.9
20260905201519 72 170 0.0 0.0 0.00 0.18 0.18 95 1008.8
20260905201016 72 170 0.0 0.0 0.00 0.18 0.18 95 1008.9
20260905200518 72 170 0.0 0.0 0.00 0.18 0.18 95 1009.1
20260905200023 71 170 0.0 0.0 0.00 0.18 0.18 94 1009.2
20260905195516 71 171 0.0 0.0 0.00 0.18 0.18 94 1009.5
20260905195016 71 171 0.0 0.0 0.00 0.18 0.18 94 1009.5
20260905194516 71 171 0.0 0.0 0.04 0.18 0.18 94 1009.7
20260905194017 71 171 0.0 0.0 0.15 0.18 0.18 93 1009.8
20260905193521 71 171 0.0 0.0 0.18 0.18 0.18 93 1009.6
20260905193015 71 176 0.0 0.0 0.18 0.18 0.18 92 1009.2
20260905192515 72 176 0.0 0.0 0.18 0.18 0.18 92 1008.9
20260905192014 72 170 0.0 0.0 0.18 0.18 0.18 91 1008.5
20260905191515 72 170 0.0 0.0 0.18 0.18 0.18 90 1008.4
20260905191015 72 171 0.0 0.9 0.18 0.18 0.18 89 1008.9
20260905190514 73 171 0.0 0.9 0.18 0.18 0.18 88 1009.3
20260905190022 74 172 0.0 0.0 0.18 0.18 0.18 87 1009.1
20260905185515 75 172 0.0 0.0 0.18 0.18 0.18 84 1009.4
20260905185014 77 183 0.0 5.2 0.17 0.17 0.17 78 1009.7
20260905184521 80 339 0.0 13.0 0.13 0.13 0.13 73 1009.6
20260905184012 85 164 0.9 13.0 0.03 0.03 0.03 61 1009.4
20260905183513 89 44 0.0 13.0 0.00 0.00 0.00 56 1009.9
20260905183011 92 320 3.5 11.3 0.00 0.00 0.00 56 1009.1
20260905182511 93 354 0.0 0.0 0.00 0.00 0.00 57 1008.1
20260905182011 94 64 0.0 0.9 0.00 0.00 0.00 57 1008.2
20260905181509 95 18 0.0 2.6 0.00 0.00 0.00 52 1008.4
20260905181009 96 184 0.0 2.6 0.00 0.00 0.00 50 1008.6
20260905180508 97 169 0.0 7.0 0.00 0.00 0.00 49 1008.7
20260905180009 98 314 0.0 7.0 0.00 0.00 0.00 47 1009.0
20260905175508 98 348 0.0 4.3 0.00 0.00 0.00 49 1009.1
20260905175008 97 14 0.0 1.7 0.00 0.00 0.00 51 1008.8
20260905174504 97 121 0.0 0.9 0.00 0.00 0.00 50 1008.8
20260905174002 97 92 0.0 0.9 0.00 0.00 0.00 49 1008.9
20260905173502 97 70 0.0 0.9 0.00 0.00 0.00 51 1009.2
20260905173100 96 71 0.0 4.3 0.00 0.00 0.00 53 1009.3
20260905172558 96 48 0.0 7.0 0.00 0.00 0.00 53 1009.7
20260905172058 96 20 1.7 7.0 0.00 0.00 0.00 53 1009.8
20260905171558 96 18 0.0 0.9 0.00 0.00 0.00 51 1009.8
20260905171057 96 356 0.0 1.7 0.00 0.00 0.00 52 1010.0
20260905170556 96 160 0.0 1.7 0.00 0.00 0.00 51 1010.1
20260905170100 96 316 0.0 2.6 0.00 0.00 0.00 51 1010.0
20260905165555 96 29 0.0 3.5 0.00 0.00 0.00 53 1010.1
20260905165054 95 44 0.0 3.5 0.00 0.00 0.00 53 1010.2
20260905164553 96 176 0.0 0.9 0.00 0.00 0.00 53 1010.1
20260905164050 96 37 0.0 0.9 0.00 0.00 0.00 53 1010.2
20260905163553 95 11 0.0 0.0 0.00 0.00 0.00 55 1010.3
20260905163048 94 260 0.0 0.0 0.00 0.00 0.00 55 1010.3
20260905162549 94 183 0.0 5.2 0.00 0.00 0.00 56 1010.4
20260905162047 94 17 0.0 5.2 0.00 0.00 0.00 55 1010.5
20260905161544 93 11 0.0 2.6 0.00 0.00 0.00 58 1010.6
20260905161043 93 182 0.0 0.9 0.00 0.00 0.00 56 1010.6
20260905160541 92 302 0.0 4.3 0.00 0.00 0.00 59 1010.6
20260905160040 92 201 0.0 1.7 0.00 0.00 0.00 59 1010.6
20260905155539 92 67 0.0 4.3 0.00 0.00 0.00 60 1010.7
20260905155037 91 162 0.0 4.3 0.00 0.00 0.00 60 1010.7
20260905154535 91 182 0.0 0.0 0.00 0.00 0.00 60 1010.8
20260905154034 90 203 0.0 0.0 0.00 0.00 0.00 63 1010.8
20260905153533 90 349 0.0 0.9 0.00 0.00 0.00 64 1010.8
20260905153044 89 144 0.0 0.9 0.00 0.00 0.00 64 1010.9
20260905152530 89 179 0.0 0.0 0.00 0.00 0.00 63 1010.8
20260905152033 88 204 0.0 0.0 0.00 0.00 0.00 66 1010.8
20260905151527 87 204 0.0 0.0 0.00 0.00 0.00 69 1011.0
20260905151026 87 94 0.0 0.9 0.00 0.00 0.00 70 1011.1
20260905150524 86 186 0.0 0.9 0.00 0.00 0.00 70 1011.2
20260905150022 85 153 0.0 2.6 0.00 0.00 0.00 73 1011.2
20260905145522 84 150 0.0 2.6 0.00 0.00 0.00 74 1011.3
20260905145020 84 194 0.0 0.0 0.00 0.00 0.00 75 1011.3
20260905144524 83 146 0.0 0.9 0.00 0.00 0.00 76 1011.3
20260905144016 82 162 0.0 0.0 0.00 0.00 0.00 77 1011.2